Terminal Aerodrome Forecast
Issued by NWS

Home | Current Version | Previous Version | Text Only | Print | Product List | Glossary On
Versions: 1 2 3 4 5 6 7 8 9 10 11 12 13 14 15 16 17 18 19 20 21 22 23 24 25
000
FTUS43 KDLH 220200 AAA
TAFHYR
TAF AMD
KHYR 220225Z 2202/2224 16008KT P6SM BKN035
      TEMPO 2202/2206 18012KT BKN025
     FM220600 VRB06KT P6SM VCTS SCT015 BKN030CB
      TEMPO 2208/2212 VRB40KT 2SM TSRA OVC015CB
     FM221200 25006KT 5SM BR VCSH SCT005 OVC014
     FM221600 28010KT P6SM BKN015=

USA.gov is the U.S. government's official web portal to all federal, state and local government web resources and services.